�������l�o���
Date,Time,MP-1(��Sv/h),MP-2(��Sv/h),MP-3(��Sv/h),MP-4(��Sv/h),MP-5(��Sv/h),MP-6(��Sv/h),MP-7(��Sv/h),MP-8(��Sv/h),����,����(m/s),���J
2021/09/24,00:00,0.590,0.880,0.562,1.066,0.765,0.360,0.627,0.586,���k��,3.4,��
2021/09/24,00:10,0.590,0.879,0.562,1.068,0.765,0.360,0.625,0.586,���k��,2.6,��
2021/09/24,00:20,0.590,0.879,0.562,1.066,0.765,0.361,0.626,0.587,���k��,3.3,��
2021/09/24,00:30,0.590,0.880,0.563,1.067,0.764,0.361,0.624,0.587,�k�k��,3.4,��
2021/09/24,00:40,0.589,0.880,0.562,1.067,0.765,0.363,0.625,0.586,�k,4.7,��
2021/09/24,00:50,0.589,0.879,0.563,1.067,0.764,0.361,0.626,0.587,�k�k��,6.3,��
2021/09/24,01:00,0.590,0.879,0.563,1.068,0.762,0.360,0.624,0.586,�k�k��,6.1,��
2021/09/24,01:10,0.589,0.880,0.563,1.066,0.764,0.361,0.625,0.587,�k�k��,5.6,��
2021/09/24,01:20,0.592,0.878,0.563,1.070,0.767,0.361,0.627,0.585,�k�k��,5.2,��
2021/09/24,01:30,0.589,0.878,0.565,1.067,0.766,0.362,0.626,0.587,�k��,6.1,��
2021/09/24,01:40,0.589,0.880,0.564,1.068,0.765,0.361,0.628,0.586,�k�k��,6.3,��
2021/09/24,01:50,0.589,0.879,0.565,1.066,0.764,0.362,0.626,0.586,�k��,6.5,��
2021/09/24,02:00,0.589,0.878,0.563,1.068,0.766,0.361,0.627,0.587,�k��,6.3,��
2021/09/24,02:10,0.591,0.879,0.564,1.069,0.764,0.360,0.627,0.587,�k��,6.3,��
2021/09/24,02:20,0.589,0.879,0.563,1.068,0.765,0.360,0.627,0.587,�k��,7.4,��
2021/09/24,02:30,0.590,0.880,0.565,1.068,0.766,0.360,0.627,0.588,�k��,7.0,��
2021/09/24,02:40,0.590,0.877,0.564,1.069,0.765,0.361,0.627,0.587,�k��,7.5,��
2021/09/24,02:50,0.590,0.879,0.563,1.068,0.765,0.361,0.628,0.586,�k��,6.5,��
2021/09/24,03:00,0.589,0.879,0.563,1.068,0.763,0.362,0.626,0.586,�k��,6.0,��
2021/09/24,03:10,0.590,0.880,0.563,1.069,0.767,0.359,0.625,0.586,�k�k��,5.5,��
2021/09/24,03:20,0.591,0.878,0.561,1.069,0.764,0.361,0.626,0.587,�k�k��,5.0,��
2021/09/24,03:30,0.590,0.880,0.563,1.069,0.766,0.361,0.626,0.585,�k,4.0,��
2021/09/24,03:40,0.589,0.879,0.564,1.071,0.764,0.360,0.627,0.588,�k�k��,4.7,��
2021/09/24,03:50,0.590,0.880,0.564,1.070,0.765,0.359,0.625,0.587,�k�k��,4.8,��
2021/09/24,04:00,0.590,0.877,0.564,1.068,0.765,0.361,0.627,0.588,�k�k��,5.7,��
2021/09/24,04:10,0.589,0.880,0.563,1.070,0.766,0.361,0.627,0.588,�k�k��,6.2,��
2021/09/24,04:20,0.588,0.880,0.564,1.069,0.764,0.361,0.626,0.585,�k�k��,5.7,��
2021/09/24,04:30,0.589,0.880,0.564,1.069,0.764,0.360,0.626,0.586,�k�k��,5.2,��
2021/09/24,04:40,0.588,0.880,0.565,1.070,0.764,0.361,0.626,0.588,�k��,5.1,��
2021/09/24,04:50,0.591,0.880,0.563,1.070,0.765,0.360,0.626,0.587,�k��,4.4,��
2021/09/24,05:00,0.591,0.880,0.565,1.069,0.766,0.361,0.626,0.587,�k��,6.4,��
2021/09/24,05:10,0.589,0.881,0.563,1.070,0.765,0.361,0.628,0.587,���k��,6.3,��
2021/09/24,05:20,0.591,0.880,0.565,1.069,0.766,0.362,0.625,0.586,�k��,5.9,��
2021/09/24,05:30,0.591,0.881,0.564,1.070,0.765,0.361,0.626,0.586,�k��,5.6,��
2021/09/24,05:40,0.591,0.881,0.563,1.071,0.765,0.360,0.626,0.586,�k��,5.6,��
2021/09/24,05:50,0.589,0.880,0.565,1.070,0.767,0.360,0.626,0.588,���k��,4.9,��
2021/09/24,06:00,0.592,0.879,0.564,1.071,0.766,0.360,0.628,0.587,���k��,6.6,��
2021/09/24,06:10,0.591,0.880,0.564,1.069,0.766,0.362,0.627,0.587,���k��,5.4,��
2021/09/24,06:20,0.591,0.880,0.566,1.070,0.765,0.361,0.627,0.586,�k��,7.0,��
2021/09/24,06:30,0.593,0.881,0.564,1.071,0.766,0.361,0.626,0.587,���k��,6.8,��
2021/09/24,06:40,0.591,0.879,0.564,1.070,0.765,0.362,0.626,0.586,���k��,6.8,��
2021/09/24,06:50,0.593,0.881,0.566,1.070,0.765,0.361,0.627,0.586,�k��,6.3,��
2021/09/24,07:00,0.592,0.880,0.565,1.072,0.767,0.361,0.626,0.587,���k��,6.0,��
2021/09/24,07:10,0.592,0.880,0.563,1.071,0.765,0.362,0.628,0.586,���k��,5.4,��
2021/09/24,07:20,0.591,0.880,0.562,1.072,0.765,0.360,0.628,0.586,���k��,4.4,��
2021/09/24,07:30,0.594,0.878,0.563,1.072,0.765,0.361,0.626,0.587,�k��,3.6,��
2021/09/24,07:40,0.591,0.880,0.562,1.072,0.767,0.362,0.627,0.587,���k��,4.5,��
2021/09/24,07:50,0.590,0.880,0.561,1.071,0.765,0.361,0.627,0.588,���k��,4.5,��
2021/09/24,08:00,0.591,0.880,0.562,1.073,0.767,0.360,0.629,0.587,�k��,4.7,��
2021/09/24,08:10,0.592,0.881,0.562,1.074,0.765,0.361,0.626,0.586,�k��,5.0,��
2021/09/24,08:20,0.590,0.881,0.562,1.073,0.765,0.360,0.627,0.586,�k��,5.9,��
2021/09/24,08:30,0.591,0.880,0.563,1.074,0.766,0.360,0.627,0.586,�k��,3.4,��
2021/09/24,08:40,0.591,0.877,0.565,1.073,0.765,0.359,0.626,0.585,���k��,4.3,��
2021/09/24,08:50,0.592,0.878,0.562,1.076,0.766,0.361,0.625,0.586,�k��,4.2,��
2021/09/24,09:00,0.590,0.879,0.564,1.073,0.766,0.360,0.627,0.585,�k��,6.0,��
2021/09/24,09:10,0.591,0.880,0.563,1.073,0.766,0.361,0.627,0.586,���k��,4.4,��
2021/09/24,09:20,0.593,0.879,0.562,1.073,0.766,0.362,0.628,0.586,���k��,6.0,��
2021/09/24,09:30,0.592,0.878,0.564,1.075,0.767,0.359,0.627,0.586,���k��,6.6,��
2021/09/24,09:40,0.593,0.880,0.563,1.072,0.768,0.361,0.626,0.585,���k��,5.2,��
2021/09/24,09:50,0.593,0.878,0.564,1.074,0.769,0.361,0.628,0.585,���k��,5.8,��
2021/09/24,10:00,0.593,0.882,0.565,1.075,0.767,0.362,0.628,0.587,���k��,5.0,��
2021/09/24,10:10,0.594,0.883,0.563,1.074,0.768,0.361,0.628,0.585,���k��,6.0,��
2021/09/24,10:20,0.594,0.882,0.566,1.077,0.769,0.363,0.628,0.587,���k��,5.0,��
2021/09/24,10:30,0.593,0.884,0.566,1.075,0.769,0.362,0.628,0.586,���k��,4.2,��
2021/09/24,10:40,0.595,0.882,0.565,1.077,0.768,0.362,0.628,0.586,���k��,4.4,��
2021/09/24,10:50,0.593,0.883,0.566,1.074,0.769,0.362,0.628,0.586,��,4.3,��
2021/09/24,11:00,0.594,0.885,0.564,1.073,0.769,0.361,0.627,0.587,���k��,4.5,��
2021/09/24,11:10,0.593,0.884,0.565,1.075,0.769,0.362,0.628,0.587,��,3.6,��
2021/09/24,11:20,0.594,0.882,0.566,1.075,0.770,0.361,0.629,0.587,�k�k��,0.9,��
2021/09/24,11:30,0.594,0.885,0.566,1.079,0.770,0.362,0.627,0.585,�k��,2.3,��
2021/09/24,11:40,0.594,0.885,0.566,1.077,0.771,0.362,0.628,0.585,��,2.3,��
2021/09/24,11:50,0.594,0.883,0.565,1.076,0.770,0.362,0.628,0.586,���k��,3.2,��
2021/09/24,12:00,0.594,0.885,0.566,1.075,0.772,0.362,0.627,0.587,���쓌,2.3,��
2021/09/24,12:10,0.596,0.885,0.566,1.076,0.771,0.361,0.627,0.587,��,3.0,��
2021/09/24,12:20,0.594,0.884,0.565,1.076,0.773,0.362,0.627,0.587,��,3.2,��
2021/09/24,12:30,0.596,0.883,0.566,1.078,0.769,0.362,0.629,0.585,���쓌,3.1,��
2021/09/24,12:40,0.595,0.887,0.568,1.077,0.771,0.361,0.628,0.588,��,3.2,��
2021/09/24,12:50,0.596,0.886,0.567,1.076,0.773,0.363,0.627,0.588,��,3.4,��
2021/09/24,13:00,0.594,0.882,0.566,1.079,0.772,0.361,0.627,0.587,��,2.8,��
2021/09/24,13:10,0.594,0.884,0.566,1.078,0.771,0.362,0.627,0.588,��,3.5,��
2021/09/24,13:20,0.595,0.885,0.566,1.076,0.771,0.363,0.627,0.587,��,3.1,��
2021/09/24,13:30,0.594,0.886,0.567,1.076,0.772,0.362,0.628,0.587,���쓌,3.0,��
2021/09/24,13:40,0.597,0.884,0.566,1.076,0.769,0.361,0.627,0.587,���쓌,2.9,��
2021/09/24,13:50,0.595,0.887,0.568,1.079,0.773,0.361,0.628,0.585,���쓌,2.9,��
2021/09/24,14:00,0.595,0.885,0.566,1.078,0.773,0.362,0.626,0.587,���쓌,2.3,��
2021/09/24,14:10,0.596,0.888,0.567,1.078,0.770,0.364,0.628,0.587,��,1.4,��
2021/09/24,14:20,0.594,0.885,0.566,1.079,0.772,0.363,0.628,0.586,��,1.2,��
2021/09/24,14:30,0.595,0.889,0.566,1.078,0.774,0.364,0.628,0.587,���k��,1.7,��
2021/09/24,14:40,0.594,0.888,0.568,1.077,0.772,0.365,0.626,0.586,���k��,2.2,��
2021/09/24,14:50,0.595,0.887,0.565,1.077,0.771,0.363,0.628,0.586,���k��,1.7,��
2021/09/24,15:00,0.596,0.886,0.567,1.078,0.773,0.363,0.627,0.587,�k�k��,1.4,��
2021/09/24,15:10,0.596,0.887,0.565,1.078,0.772,0.362,0.627,0.586,���k��,1.5,��
2021/09/24,15:20,0.594,0.886,0.567,1.078,0.773,0.363,0.626,0.586,�k,1.2,�L
2021/09/24,15:30,0.595,0.890,0.568,1.079,0.775,0.362,0.627,0.588,�k,1.5,�L
2021/09/24,15:40,0.594,0.890,0.567,1.078,0.773,0.364,0.627,0.586,�k,1.4,��
2021/09/24,15:50,0.596,0.890,0.567,1.079,0.774,0.363,0.627,0.586,�k�k��,1.5,��
2021/09/24,16:00,0.597,0.891,0.568,1.079,0.775,0.362,0.629,0.587,�k,1.5,��
2021/09/24,16:10,0.597,0.890,0.567,1.080,0.773,0.363,0.630,0.587,�k,0.9,��
2021/09/24,16:20,0.596,0.891,0.567,1.078,0.775,0.362,0.629,0.586,���쐼,1.2,��
2021/09/24,16:30,0.595,0.892,0.566,1.077,0.774,0.364,0.629,0.588,��쐼,1.7,��
2021/09/24,16:40,0.596,0.892,0.569,1.080,0.774,0.363,0.629,0.587,��,1.1,��
2021/09/24,16:50,0.596,0.892,0.567,1.079,0.773,0.363,0.630,0.588,�쓌,1.4,��
2021/09/24,17:00,0.596,0.890,0.567,1.079,0.774,0.362,0.629,0.588,�쓌,2.0,��
2021/09/24,17:10,0.596,0.890,0.567,1.078,0.774,0.363,0.629,0.587,��쓌,1.5,��
2021/09/24,17:20,0.595,0.891,0.569,1.079,0.775,0.364,0.630,0.588,��,1.2,��
2021/09/24,17:30,0.596,0.893,0.570,1.081,0.776,0.363,0.629,0.588,�쐼,0.9,��
2021/09/24,17:40,0.595,0.893,0.569,1.080,0.776,0.363,0.630,0.589,��쓌,0.8,��
2021/09/24,17:50,0.597,0.893,0.569,1.080,0.774,0.362,0.630,0.587,-,CALM,��
2021/09/24,18:00,0.597,0.895,0.567,1.080,0.775,0.362,0.629,0.588,�k�k��,1.1,��
2021/09/24,18:10,0.595,0.894,0.569,1.078,0.774,0.362,0.629,0.588,�k�k��,1.2,��
2021/09/24,18:20,0.598,0.893,0.567,1.078,0.774,0.362,0.627,0.589,�k,1.5,��
2021/09/24,18:30,0.596,0.889,0.567,1.082,0.774,0.364,0.629,0.587,�k,1.7,��
2021/09/24,18:40,0.595,0.893,0.569,1.081,0.775,0.363,0.629,0.587,�k,3.1,��
2021/09/24,18:50,0.596,0.891,0.569,1.081,0.775,0.362,0.630,0.588,�k,3.8,��
2021/09/24,19:00,0.596,0.893,0.568,1.079,0.774,0.361,0.629,0.588,�k,3.6,��
2021/09/24,19:10,0.596,0.891,0.566,1.077,0.775,0.363,0.627,0.588,�k,4.5,��
2021/09/24,19:20,0.596,0.892,0.567,1.080,0.775,0.363,0.629,0.587,�k,7.3,��
2021/09/24,19:30,0.595,0.893,0.566,1.078,0.773,0.362,0.628,0.588,�k,7.0,��
2021/09/24,19:40,0.595,0.893,0.566,1.078,0.775,0.361,0.629,0.587,�k,6.1,��
2021/09/24,19:50,0.594,0.889,0.568,1.079,0.774,0.363,0.629,0.589,�k,5.8,��
2021/09/24,20:00,0.596,0.890,0.568,1.080,0.774,0.361,0.629,0.589,�k,5.6,��
2021/09/24,20:10,0.596,0.893,0.570,1.080,0.773,0.363,0.628,0.588,�k,6.8,��
2021/09/24,20:20,0.594,0.891,0.568,1.081,0.774,0.362,0.628,0.587,�k,7.7,��
2021/09/24,20:30,0.593,0.892,0.567,1.079,0.772,0.360,0.628,0.588,�k,5.8,��
2021/09/24,20:40,0.591,0.891,0.567,1.079,0.773,0.360,0.627,0.586,�k,6.5,��
2021/09/24,20:50,0.594,0.891,0.566,1.077,0.772,0.363,0.629,0.589,�k�k��,6.5,��
2021/09/24,21:00,0.593,0.890,0.568,1.079,0.773,0.361,0.627,0.587,�k,6.2,��
2021/09/24,21:10,0.593,0.891,0.567,1.080,0.773,0.360,0.629,0.589,�k,6.1,��
2021/09/24,21:20,0.592,0.889,0.566,1.079,0.771,0.361,0.628,0.587,�k,6.4,��
2021/09/24,21:30,0.592,0.891,0.566,1.078,0.773,0.360,0.628,0.589,�k,6.1,��
2021/09/24,21:40,0.592,0.889,0.566,1.080,0.773,0.360,0.627,0.588,�k,6.1,��
2021/09/24,21:50,0.593,0.890,0.567,1.080,0.773,0.362,0.627,0.588,�k,5.3,��
2021/09/24,22:00,0.592,0.890,0.566,1.078,0.773,0.361,0.627,0.589,�k,5.9,��
2021/09/24,22:10,0.594,0.892,0.565,1.079,0.773,0.361,0.628,0.588,�k,6.1,��
2021/09/24,22:20,0.594,0.889,0.567,1.080,0.775,0.362,0.626,0.588,�k,5.9,��
2021/09/24,22:30,0.596,0.889,0.564,1.080,0.772,0.361,0.626,0.588,�k,5.3,�L
2021/09/24,22:40,0.594,0.890,0.568,1.079,0.772,0.362,0.626,0.588,�k,5.7,�L
2021/09/24,22:50,0.595,0.889,0.566,1.079,0.774,0.361,0.627,0.588,�k,5.6,�L
2021/09/24,23:00,0.594,0.890,0.567,1.080,0.774,0.362,0.625,0.587,�k,6.0,��
2021/09/24,23:10,0.593,0.893,0.567,1.079,0.775,0.362,0.627,0.587,�k,6.2,��
2021/09/24,23:20,0.594,0.892,0.567,1.081,0.775,0.363,0.626,0.587,�k�k��,5.8,��
2021/09/24,23:30,0.596,0.892,0.566,1.080,0.774,0.361,0.625,0.587,�k�k��,5.3,��
2021/09/24,23:40,0.593,0.892,0.566,1.079,0.774,0.361,0.626,0.586,�k�k��,4.5,��
2021/09/24,23:50,0.594,0.892,0.567,1.081,0.773,0.362,0.626,0.587,�k�k��,4.4,��
